Home   Weather   Denmark   Holstebro   Past weeks
Flag for Denmark

Past Weather in Holstebro, Denmark — Yesterday and Last 2 Weeks

Currently: 41 °F. Quite cool. (Weather station: Karup, Denmark). See more current weather

Past Weather in Holstebro — Graph

°F

Holstebro Temperature Yesterday

Maximum temperature yesterday: 46 °F (at 6:20 am)
Minimum temperature yesterday: 41 °F (at 2:30 pm)
Average temperature yesterday: 43 °F

High & Low Weather Summary for the Past Weeks

 TemperatureHumidityPressure
High48 °F (Jan 14, 5:02 am)100% (Jan 15, 10:20 pm)30.48 "Hg (Jan 15, 10:20 pm)
Low21 °F (Jan 21, 2:50 am)41% (Jan 20, 12:06 pm)29.59 "Hg (Jan 27, 8:20 am)
Average40 °F85%30.17 "Hg
* Reported Jan 13 11:20 am — Jan 28 11:50 am, Holstebro. Weather by CustomWeather, © 2022

Note: Actual official high and low records may vary slightly from our data, if they occured in-between our weather recording intervals... More about our weather records

Holstebro Weather History for the Previous 24 Hours

Scroll right to see more
 ConditionsComfort  
Time TempWeatherWind HumidityBarometerVisibility
11:50 am
Fri, Jan 28
41 °FQuite cool.13 mph61%30.30 "HgN/A
11:20 am41 °FQuite cool.12 mph61%30.30 "HgN/A
10:50 am39 °FChilly.10 mph65%30.30 "HgN/A
10:20 am37 °FChilly.8 mph75%30.27 "HgN/A
9:50 am36 °FChilly.9 mph75%30.27 "HgN/A
9:20 am36 °FChilly.9 mph75%30.27 "HgN/A
8:50 am34 °FChilly.7 mph81%30.24 "HgN/A
8:20 am36 °FChilly.10 mph70%30.24 "HgN/A
7:50 am37 °FChilly.12 mph70%30.21 "HgN/A
7:20 am37 °FChilly.14 mph70%30.18 "HgN/A
6:50 am37 °FChilly.14 mph70%30.15 "HgN/A
6:20 am37 °FChilly.15 mph70%30.12 "HgN/A
5:50 am37 °FChilly.17 mph70%30.12 "HgN/A
5:20 am37 °FChilly.17 mph70%30.09 "HgN/A
4:50 am37 °FChilly.18 mph65%30.07 "HgN/A
4:20 am37 °FChilly.18 mph65%30.04 "HgN/A
3:50 am37 °FChilly.18 mph70%30.01 "HgN/A
3:20 am39 °FChilly.20 mph65%30.01 "HgN/A
2:50 am39 °FPassing clouds.22 mph65%29.98 "HgN/A
2:20 am39 °FChilly.22 mph65%29.95 "HgN/A
1:54 am39 °FChilly.21 mph70%29.95 "HgN/A
1:20 am39 °FChilly.25 mph70%29.92 "HgN/A
12:50 am41 °FQuite cool.24 mph66%29.89 "HgN/A
12:20 am39 °FChilly.24 mph70%29.86 "HgN/A
12:03 am41 °FQuite cool.24 mph66%29.86 "HgN/A
11:20 pm
Thu, Jan 27
41 °FQuite cool.26 mph66%29.83 "HgN/A
10:50 pm41 °FQuite cool.28 mph70%29.80 "HgN/A
10:35 pm41 °FQuite cool.29 mph70%29.80 "HgN/A
10:23 pm41 °FQuite cool.29 mph66%29.80 "HgN/A
9:50 pm41 °FPassing clouds.30 mph70%29.77 "HgN/A
9:20 pm41 °FPassing clouds.32 mph66%29.74 "HgN/A
8:50 pm41 °FPassing clouds.29 mph70%29.71 "HgN/A
8:20 pm43 °FPassing clouds.32 mph71%29.71 "HgN/A
7:50 pm43 °FPassing clouds.35 mph76%29.68 "HgN/A
6:58 pm41 °FPassing clouds.37 mph81%29.65 "HgN/A
6:20 pm41 °FPassing clouds.31 mph76%29.65 "HgN/A
5:50 pm41 °FPassing clouds.33 mph76%29.62 "HgN/A
5:20 pm41 °FPassing clouds.33 mph76%29.62 "HgN/A
4:57 pm41 °FPassing clouds.35 mph76%29.62 "HgN/A
4:30 pm43 °FPartly sunny.29 mph76%29.62 "HgN/A
4:06 pm41 °FPartly sunny.31 mph76%29.62 "HgN/A
3:50 pm43 °FLight rain. Partly sunny.30 mph76%29.62 "HgN/A
3:21 pm43 °FPartly sunny.31 mph71%29.62 "HgN/A
3:04 pm43 °FLight rain. Partly sunny.25 mph76%29.62 "HgN/A
2:30 pm41 °FLight rain. Partly sunny.31 mph81%29.62 "HgN/A
2:21 pm43 °FSprinkles. Broken clouds.32 mph76%29.62 "Hg4 mi
2:09 pm43 °FLight rain. Partly sunny.30 mph76%29.62 "HgN/A
1:20 pm43 °FPartly sunny.35 mph76%29.62 "HgN/A
1:02 pm43 °FPartly sunny.33 mph76%29.59 "HgN/A
Weather by CustomWeather, © 2022

See weather overview